AirNav   Everest Fuels
 
 1080 users online  

03OR Powwatka Ridge Airport
Troy, Oregon, USA

GOING TO TROY?


FAA INFORMATION EFFECTIVE 16 JULY 2020

Location

FAA Identifier: 03OR
Lat/Long: 45-51-19.5190N 117-29-03.6390W
45-51.325317N 117-29.060650W
45.8554219,-117.4843442
(estimated)
Elevation: 3340 ft. / 1018 m (estimated)
Variation: 18E (1985)
From city: 5 miles S of TROY, OR
Time zone: UTC -7 (UTC -8 during Standard Time)
Zip code: 97885

Airport Operations

Airport use: Private use. Permission required prior to landing
Activation date: 07/1980
Control tower: no
ARTCC: SEATTLE CENTER
FSS: MC MINNVILLE FLIGHT SERVICE STATION
Attendance: UNATNDD
Wind indicator: yes
Segmented circle: no

Nearby radio navigation aids

VOR radial/distance  VOR name  Freq  Var
ALWr092/36.5WALLA WALLA VOR/DME116.4020E

 
NDB name  Hdg/Dist  Freq  Var  ID
LA GRANDE016/36.729617ELGD .-.. --. -..

Airport Services

Runway Information

Runway 7/25

Dimensions: 2950 x 60 ft. / 899 x 18 m
Surface: concrete
RUNWAY 7  RUNWAY 25
Traffic pattern: leftleft

Airport Ownership and Management from official FAA records

Ownership: Privately-owned
Owner: MARK S. HEMSTREET
11600 SW BARNES ROAD
PORTLAND, OR 97225
Phone 503-641-6565

Additional Remarks

OWNER DESIRES ARPT NOT BE CHARTED.
FOR CD CTC SEATTLE ARTCC AT 253-351-3694.

Instrument Procedures

There are no published instrument procedures at 03OR.

Some nearby airports with instrument procedures:

KALW - Walla Walla Regional Airport (36 nm NW)
KLWS - Lewiston-Nez Perce County Airport (37 nm NE)
KLGD - La Grande/Union County Airport (40 nm SW)
KPUW - Pullman/Moscow Regional Airport (55 nm N)
KGIC - Idaho County Airport (57 nm E)
 
Loc | Ops | Rwys | IFR | FBO | Links
Com | Nav | Svcs | Stats | Notes
Area around 03OR (Powwatka Ridge Airport)
 
Road maps at: MapQuest Bing Google
 
Aerial photo
WARNING: Photo may not be current or correct
Aerial photo of 03OR (Powwatka Ridge Airport)
Do you have a better or more recent aerial photo of Powwatka Ridge Airport that you would like to share? If so, please send us your photo.

 
Sectional chart

 
Airport distance calculator
Flying to Powwatka Ridge Airport? Find the distance to fly.

From to 03OR

Sunrise and sunset
Times for 11-Aug-2020
 Local
(UTC-7)
 Zulu
(UTC)
Morning civil twilight05:1412:14
Sunrise05:4712:47
Sunset20:0303:03
Evening civil twilight20:3603:36

Current date and time
Zulu (UTC)  12-Aug-2020 00:30:37
Local (UTC-7)  11-Aug-2020 17:30:37
 
METAR
KJSY 
31nm S 
120015Z AUTO 06008KT 10SM CLR 31/00 A2986 RMK AO2 T03050001
KLWS 
36nm NE 
112356Z 32015G23KT 10SM CLR 32/01 A2970 RMK AO2 SLP048 T03170011 10350 20278 56020
KALW 
36nm NW 
112353Z 21008KT 10SM CLR 31/01 A2975 RMK AO2 SLP065 T03110006 10328 20272 56018
KLGD 
41nm SW 
112356Z AUTO 32010KT 10SM CLR 32/01 A2980 RMK AO2 SLP073 T03170006 10344 20267 55016
KMEH 
44nm SW 
112356Z AUTO VRB05KT 10SM CLR 26/M03 A2991 RMK AO2 SLP109 T02611033 10283 20250 56010
TAF
KLWS 
36nm NE 
111737Z 1118/1218 31006KT P6SM SKC FM112100 28014G23KT P6SM FEW250 FM120500 27010KT P6SM FEW250 FM121100 VRB05KT P6SM BKN250
KALW 
36nm NW 
111735Z 1118/1218 22014KT P6SM SKC FM112200 24014G21KT P6SM SKC FM120500 20010KT P6SM FEW250 FM121600 24013KT P6SM SCT250
NOTAMs
Click for the latest NOTAMs
NOTAMs are issued by the DoD/FAA and will open in a separate window not controlled by AirNav.

 

 
 

Would you like to see your business listed on this page?

 If your business provides an interesting product or service to pilots, flight crews, aircraft, or users of the Powwatka Ridge Airport, you should consider listing it here.  To start the listing process, click on the button below
 
Add a business
 

Other Pages about Powwatka Ridge Airport

Update a link
 
Copyright © AirNav, LLC. All rights reserved. Privacy Policy  Contact